Temperature
17 18 18 19 19 19 20 23 25 24 25 25 24 25 25 25 23 21 20 20 20 22 22 21 21 19 17 16 16 16 16 16 16 15 15 15 15 15 15 15 15 15 14 14 14 15 15 15 15
17 17 18 19 19 19 21 23 24 24 24 23 24 24 24 25 22 20 19 19 19 20 21 21 20 19 17 16 16 16 16 15 15 15 15 15 15 15 15 15 15 15 14 14 15 15 15 15 15
17 17 18 19 19 19 22 24 24 24 23 23 24 25 25 24 22 20 19 19 18 19 20 21 20 19 17 16 16 15 15 15 15 15 15 15 16 16 15 15 15 14 14 15 15 15 15 15 15
16 17 18 19 19 21 22 23 24 23 23 23 24 25 23 21 21 20 19 18 18 18 19 20 20 18 17 16 16 15 15 15 15 15 15 16 16 16 16 15 15 15 15 15 15 15 15 15 15
15 17 17 18 19 22 23 24 23 24 24 24 24 24 21 20 20 19 18 18 18 17 19 19 19 18 17 16 16 16 15 15 15 15 15 16 16 16 16 16 15 15 15 15 15 15 15 15 15
15 16 16 17 19 21 23 24 23 23 24 24 24 24 20 20 19 19 18 18 18 18 18 19 19 18 17 16 16 16 15 15 15 15 15 16 16 17 16 16 16 16 15 15 15 15 15 15 15
14 15 16 17 19 21 22 24 23 22 23 24 24 24 20 19 19 18 18 18 18 18 18 19 19 19 18 17 16 16 15 15 15 15 15 16 16 17 17 16 16 16 16 15 15 15 15 15 15
14 14 15 17 19 20 23 23 23 23 23 23 23 23 20 19 19 18 18 18 18 17 18 18 19 19 18 18 17 16 16 15 15 15 15 16 16 16 16 16 16 16 16 16 15 15 15 15 15
14 13 14 16 18 20 23 23 22 22 22 22 22 20 19 19 19 19 18 18 17 17 17 17 18 18 18 18 18 17 16 16 15 15 15 16 16 16 16 16 16 16 16 16 16 15 15 15 15
14 13 15 17 19 20 22 22 22 21 21 22 21 20 19 19 19 19 18 18 17 17 16 16 16 17 17 17 17 17 17 16 16 16 16 16 16 16 15 16 16 16 16 16 16 15 15 15 15
14 14 16 18 19 20 20 21 22 21 20 22 22 20 19 19 18 18 17 17 17 17 16 16 16 16 16 16 17 17 17 17 16 16 16 16 15 14 14 15 16 16 16 16 16 15 15 15 15
15 16 17 18 18 18 19 20 21 21 21 21 21 20 19 19 19 18 18 17 17 17 17 16 16 16 16 16 16 16 16 16 16 16 15 16 15 14 14 15 15 16 16 16 16 15 15 15 14
15 16 17 18 17 17 18 19 20 20 20 19 19 19 19 19 19 18 18 18 17 17 16 17 16 16 16 16 15 15 15 15 16 15 15 15 15 14 14 14 14 15 15 15 15 15 14 14 14
15 16 17 17 17 17 18 19 19 20 20 19 18 18 18 19 19 19 18 18 17 17 17 17 17 17 17 16 16 16 15 15 15 15 15 15 14 14 14 14 14 14 14 14 14 14 14 13 14
16 15 16 16 16 17 17 16 17 19 19 19 19 18 19 19 19 18 18 18 18 18 17 17 17 17 17 17 16 16 16 15 15 15 15 15 15 14 14 14 14 14 13 13 13 13 13 13 13
14 14 14 15 16 16 16 15 17 18 19 19 19 19 19 19 19 18 18 18 18 18 18 17 17 17 17 17 17 16 16 16 15 15 15 15 15 14 14 14 14 14 13 13 13 13 13 13 13
12 12 13 15 16 16 15 15 17 19 18 18 18 19 19 19 19 18 18 18 18 18 17 17 17 17 16 16 16 16 16 16 16 16 16 15 15 15 14 14 14 13 13 13 13 12 13 13 13
12 13 13 14 15 15 14 15 17 18 17 17 18 18 19 19 18 18 18 17 17 17 17 17 17 17 16 16 16 15 16 16 16 17 17 16 15 15 14 14 14 13 13 13 12 12 12 12 12
14 14 14 15 16 15 14 15 16 17 17 17 17 18 18 18 18 17 17 16 16 16 16 16 16 16 16 16 16 15 15 16 16 17 17 17 16 15 14 14 14 13 13 13 13 12 12 12 11
15 14 15 15 14 15 14 14 15 16 17 17 17 17 17 17 16 15 15 15 15 15 15 15 15 15 16 15 15 15 15 15 15 15 16 16 16 15 15 14 14 13 13 13 12 12 12 12 11
14 14 15 14 13 14 14 13 14 15 16 15 15 15 15 15 15 14 14 13 13 13 13 14 14 15 15 15 15 15 15 15 15 14 15 15 15 15 14 14 13 13 13 12 12 12 12 12 11
13 15 15 14 12 11 12 12 14 14 14 14 14 14 14 14 14 13 13 12 12 12 12 13 13 14 14 14 14 14 14 14 14 14 14 14 14 14 14 13 13 12 12 12 12 12 12 11 11
13 14 14 13 12 12 12 12 14 13 13 12 13 14 13 13 13 12 12 11 11 12 12 12 13 13 13 13 13 13 13 13 13 13 13 14 14 13 13 13 13 12 12 12 12 12 11 11 11
13 13 12 12 12 10 12 12 13 13 13 12 13 13 13 12 12 12 11 11 11 11 11 12 12 12 12 12 12 12 12 12 12 13 13 13 13 13 13 13 12 12 12 12 12 11 11 11 11
12 10 9 9 9 9 13 13 13 14 14 13 12 13 13 12 12 11 11 10 10 10 10 10 10 10 10 10 11 11 11 11 11 11 12 12 12 12 12 12 12 12 12 12 11 11 11 11 11
10 11 10 10 9 10 12 11 13 13 14 14 13 13 12 12 12 11 10 10 9 9 9 9 9 9 9 9 10 10 10 10 10 10 10 10 11 11 12 12 12 12 12 11 11 11 11 11 10
10 10 11 10 11 11 10 12 12 13 12 12 13 12 12 12 11 10 10 9 8 8 8 8 8 8 8 8 8 9 9 9 9 9 9 9 10 10 10 11 11 11 11 11 11 11 10 10 10
9 10 9 9 9 11 12 12 10 11 11 12 12 13 12 12 11 10 9 8 7 7 7 7 7 7 7 7 7 8 8 8 8 8 8 9 9 9 9 10 10 10 10 10 10 10 10 10 10
8 8 9 9 10 9 11 12 13 11 11 11 12 13 12 11 10 9 8 7 6 6 6 6 6 6 7 7 7 7 7 7 8 8 8 8 8 8 9 9 9 9 10 10 10 9 9 9 9
9 9 9 9 9 10 9 10 13 12 12 12 12 12 11 10 9 8 7 6 5 5 5 5 5 6 6 6 6 6 6 6 7 7 7 7 7 8 8 8 8 8 9 9 9 9 8 8 8
Wind_Speed
13 15 9 4 4 6 10 10 1 6 4 7 8 6 8 6 5 6 5 6 17 17 19 18 17 15 14 14 15 15 15 16 16 15 14 12 10 10 10 11 13 15 16 17 17 16 16 15 14
11 11 6 4 5 7 9 8 5 4 7 6 2 3 6 1 9 8 5 11 16 16 17 17 17 15 15 15 16 16 16 16 15 15 13 11 10 10 10 13 15 16 16 17 16 15 15 14 13
8 10 5 4 7 9 8 3 6 9 6 1 4 6 3 5 8 7 8 11 14 14 17 19 17 16 16 16 16 16 16 15 15 14 12 11 10 10 12 14 15 16 16 15 15 14 13 13 12
4 4 5 7 11 13 11 4 5 8 6 4 3 4 6 6 5 8 10 11 13 12 18 18 17 16 16 16 16 16 15 15 15 14 12 11 11 12 13 13 14 14 14 14 13 12 12 11 10
3 4 8 10 13 12 8 5 6 3 5 5 4 2 8 7 11 11 9 10 11 15 18 17 17 16 16 15 15 15 15 15 15 13 12 11 12 12 11 11 12 12 12 12 12 11 10 9 8
2 4 8 12 14 13 9 4 7 4 2 3 3 1 7 8 10 9 8 9 11 16 16 16 16 16 15 14 13 13 14 15 15 14 12 12 12 11 10 10 10 11 11 11 11 10 8 7 7
5 6 12 14 13 12 11 5 7 6 6 4 2 1 8 9 7 8 8 8 11 14 14 14 14 14 13 12 11 11 14 16 15 14 13 12 12 11 10 10 10 10 10 10 10 9 8 7 6
6 4 13 16 14 11 9 7 6 6 6 0 2 4 8 8 5 6 6 7 8 11 12 10 14 14 13 12 11 10 12 15 16 15 14 14 12 11 10 9 9 10 10 10 9 9 8 7 6
5 7 14 17 14 11 7 6 7 2 6 2 3 8 9 11 7 7 7 5 5 5 9 9 10 12 14 14 12 11 12 14 16 15 16 15 13 12 11 10 10 9 10 10 9 9 8 7 6
7 11 19 17 14 10 8 5 7 7 7 6 3 9 11 10 9 8 7 5 3 2 3 5 7 8 11 12 13 12 12 13 14 14 16 14 14 15 13 14 12 9 9 10 10 9 9 8 7
9 12 15 17 8 6 6 5 5 6 7 8 8 9 10 9 8 8 9 9 7 5 3 1 3 5 6 7 11 10 11 13 14 15 18 15 14 12 13 13 12 11 11 11 10 10 10 10 9
9 13 16 13 1 2 4 2 4 6 3 3 6 6 8 8 8 8 8 9 11 9 7 4 2 2 3 6 7 8 8 10 11 14 18 14 8 8 10 11 13 13 12 12 12 11 12 10 8
14 10 13 7 4 3 5 7 5 6 3 7 8 6 1 4 6 7 6 6 9 10 10 9 7 5 3 3 3 5 6 8 11 13 15 15 8 5 7 8 12 14 14 12 11 10 9 8 9
11 10 7 4 4 2 4 5 5 6 4 7 4 3 4 5 4 4 6 6 6 9 11 11 11 9 6 5 3 3 5 8 11 12 13 15 12 9 6 6 8 11 13 14 12 10 6 6 6
6 8 5 5 5 4 2 8 10 7 5 6 7 7 8 6 4 3 4 4 5 6 9 12 13 12 11 9 7 6 6 6 6 9 14 16 14 11 9 5 5 9 12 12 11 10 7 5 5
5 6 8 8 9 7 7 10 11 11 9 8 8 8 8 8 6 6 6 5 4 3 4 7 9 11 11 11 9 7 8 7 6 8 11 15 16 14 10 5 5 10 12 9 5 5 5 5 5
7 10 12 10 13 9 9 8 8 8 9 7 7 8 8 7 7 6 4 2 2 2 3 3 5 7 8 9 8 8 8 8 8 10 10 12 16 17 11 6 7 11 7 5 6 5 5 5 6
15 14 16 13 13 12 12 9 7 3 4 6 8 9 8 7 4 2 2 3 4 3 4 4 2 4 5 5 6 6 7 8 9 9 10 12 12 15 13 7 9 10 6 7 6 6 6 5 6
13 14 14 13 9 12 11 10 10 8 8 8 9 8 7 4 3 5 6 5 5 4 4 5 4 4 2 3 4 5 7 8 8 8 12 14 14 13 10 6 8 8 9 9 9 7 7 6 5
8 12 13 8 8 7 7 10 10 9 8 7 7 6 4 1 4 5 4 5 5 6 6 5 5 5 5 3 3 3 4 5 7 8 10 15 15 15 11 9 8 9 8 10 11 8 7 6 7
9 7 8 8 6 2 3 7 12 8 5 2 2 3 2 1 3 5 5 6 6 6 6 6 6 6 6 5 3 3 3 3 4 6 8 11 15 15 14 10 9 9 9 10 11 11 11 9 8
8 5 3 9 7 5 8 5 9 11 8 7 6 5 4 4 5 5 5 5 5 4 4 5 6 6 5 5 4 5 4 5 6 6 6 8 11 13 16 13 11 11 9 10 11 12 10 9 8
4 3 3 6 5 4 7 5 4 10 9 9 8 7 7 6 5 5 5 3 4 5 4 5 6 6 5 5 5 5 6 6 5 6 7 7 8 10 12 13 13 13 12 11 11 11 11 10 9
6 7 6 1 2 4 8 8 5 8 11 11 9 9 8 7 6 5 5 3 4 4 4 5 6 6 5 6 6 6 6 7 7 8 7 6 6 6 9 11 13 14 13 13 12 11 12 12 11
7 8 5 4 4 6 8 7 5 8 13 13 11 9 8 6 5 4 5 4 5 5 5 6 6 6 7 7 7 7 7 7 7 8 7 7 6 5 7 8 11 11 13 13 12 12 12 12 11
7 6 3 5 7 5 4 6 1 8 12 12 10 9 6 5 5 5 5 4 5 5 6 6 7 7 7 7 7 7 7 5 5 6 7 7 6 6 6 6 8 10 11 12 12 11 11 10 12
5 4 2 3 3 4 6 5 5 7 8 9 8 8 7 5 6 5 5 5 5 6 6 6 7 7 8 8 8 8 8 7 7 7 7 6 6 6 6 6 6 7 8 9 9 9 10 9 10
1 1 3 2 2 3 7 9 9 13 11 9 9 8 7 6 5 5 5 5 5 5 5 7 7 7 8 8 8 8 8 8 8 7 7 7 7 7 7 6 5 4 4 4 5 5 5 6 6
5 3 4 3 3 2 2 1 2 16 13 11 9 7 6 6 6 5 4 4 4 5 6 7 7 7 7 8 8 8 8 9 9 8 8 8 7 7 7 6 4 4 2 1 1 1 2 3 2
4 6 6 4 4 3 2 1 3 11 10 9 7 6 6 7 5 4 4 4 5 6 6 6 6 7 7 8 8 8 8 9 9 9 9 8 8 8 8 8 7 7 6 4 3 3 3 3 3
Wind_Direction
298 281 271 271 253 236 243 246 147 64 12 34 24 346 334 344 26 90 201 130 117 126 135 137 135 137 138 137 132 127 125 123 119 115 110 105 98 95 92 89 94 98 95 94 93 91 88 86 83
297 290 282 255 244 241 236 231 137 117 62 45 27 280 287 49 97 110 124 110 122 127 138 137 133 135 137 136 134 132 130 125 120 116 112 107 104 103 100 93 92 94 96 96 95 93 89 86 84
286 281 267 241 235 244 253 178 122 96 78 222 209 207 230 33 71 98 119 127 124 130 135 130 132 133 135 137 137 136 132 126 122 119 116 113 110 108 105 97 95 96 99 100 99 96 91 87 84
270 252 248 247 239 235 259 62 80 118 155 210 260 176 86 39 49 101 130 135 129 127 121 130 129 131 134 137 139 139 136 131 128 125 122 119 115 109 105 101 101 102 103 103 102 99 94 89 86
276 263 237 241 245 250 245 124 101 182 169 165 265 114 84 79 91 115 142 138 133 122 123 131 130 131 134 138 140 141 141 138 135 132 130 126 121 115 113 112 111 111 110 109 106 102 96 91 88
218 244 235 233 236 244 256 156 130 248 228 138 255 194 100 107 109 128 133 139 122 118 125 129 130 131 134 137 141 146 146 144 142 139 136 132 128 126 126 125 123 121 118 114 108 103 97 92 88
191 226 238 238 239 233 232 189 159 214 247 207 288 350 114 95 96 125 137 127 116 120 127 135 135 132 133 136 141 148 151 150 148 145 141 136 133 136 137 137 135 130 124 119 114 108 102 96 92
191 223 244 244 245 242 223 187 166 214 247 44 19 347 106 110 108 103 100 93 109 122 132 145 152 152 150 147 148 152 155 156 153 149 145 141 142 145 149 151 147 141 136 132 127 121 115 108 103
196 218 231 235 243 251 249 186 164 184 290 285 99 74 94 109 104 87 77 61 83 115 139 154 159 160 164 163 160 158 162 164 158 154 153 153 160 163 170 168 154 153 149 148 144 140 135 132 129
190 218 226 232 243 255 262 220 171 165 231 245 168 114 119 128 134 132 136 141 139 163 151 158 156 158 165 160 153 169 173 171 171 166 166 179 191 181 177 163 160 165 164 163 161 159 162 168 168
193 222 227 234 257 316 281 222 191 196 210 218 194 156 139 146 154 160 168 168 174 192 212 221 138 146 154 139 157 176 178 175 190 185 179 198 209 181 152 154 163 172 173 175 173 178 196 210 183
209 224 233 242 201 293 296 273 217 233 256 56 81 98 133 159 175 179 184 176 170 178 189 213 198 150 166 157 170 176 178 175 190 200 187 196 205 180 166 168 174 183 190 191 178 199 212 206 170
224 233 227 223 123 233 257 261 253 237 153 79 69 52 81 185 188 181 190 193 166 170 177 188 193 197 201 202 199 191 187 179 190 201 197 194 193 181 188 186 181 188 191 192 187 208 200 187 186
213 234 229 165 152 230 249 256 241 238 168 134 139 195 237 228 213 192 183 198 191 175 178 182 188 193 193 202 212 220 213 192 192 193 199 206 198 187 196 201 191 193 192 187 190 206 194 181 178
203 212 203 197 182 185 227 251 241 234 209 189 194 213 226 231 214 226 227 210 216 198 184 182 187 191 193 198 205 216 224 222 209 197 198 208 211 197 196 205 198 197 199 190 188 202 194 175 169
194 197 195 198 195 189 191 233 228 223 228 226 226 232 228 218 214 221 234 226 238 249 211 191 188 189 194 197 198 206 212 221 226 221 207 207 212 210 201 200 209 199 198 194 185 193 180 171 169
177 197 202 193 192 185 196 237 246 196 200 225 240 243 241 227 211 215 228 241 245 276 275 227 197 195 201 201 199 198 200 209 221 229 229 219 213 214 209 201 205 202 197 194 192 189 177 175 181
186 195 200 202 184 193 204 226 249 160 176 231 244 244 238 226 203 136 44 14 3 344 333 323 276 217 216 217 212 203 198 202 212 222 229 234 229 220 214 208 205 199 194 199 194 188 187 182 180
187 199 205 205 171 188 212 227 238 213 192 226 246 255 252 225 113 72 46 27 14 7 356 335 320 303 262 228 226 219 211 209 209 214 223 229 235 234 224 214 207 202 203 202 194 184 192 192 160
246 204 207 170 138 171 214 232 233 231 215 219 239 260 282 23 87 83 77 61 41 29 14 351 340 328 314 283 252 240 238 225 218 213 215 220 226 230 233 228 222 212 208 205 201 192 187 187 167
235 229 199 148 120 193 267 254 228 218 212 198 248 264 281 76 90 92 82 79 65 43 18 354 345 331 321 320 315 306 291 276 249 231 220 217 219 223 226 230 230 225 216 214 209 202 193 196 192
208 235 207 133 136 200 196 249 213 185 186 198 204 199 162 121 96 87 70 61 71 63 24 349 333 320 316 320 309 290 272 262 254 247 237 225 215 215 217 221 225 229 226 222 217 211 204 188 196
178 137 105 130 190 247 190 229 227 152 180 185 181 161 134 120 110 109 96 70 70 63 24 343 326 320 330 331 316 299 283 276 279 279 266 251 233 219 214 214 218 224 228 227 223 217 211 205 199
117 102 86 71 231 247 216 214 229 187 183 167 159 146 143 142 145 141 120 97 75 54 20 344 329 331 340 336 325 307 293 292 296 292 284 276 263 243 225 216 216 220 223 225 224 222 217 213 208
159 138 142 174 206 235 200 210 258 173 159 154 152 150 144 148 145 108 80 50 46 35 9 348 350 348 350 344 333 322 312 301 290 286 283 283 280 271 252 230 223 222 222 223 221 221 221 216 211
194 196 182 186 194 193 170 216 229 105 123 132 135 132 147 160 118 101 82 50 36 25 11 1 358 351 354 348 337 325 319 309 300 300 298 289 283 279 279 263 242 229 224 223 220 222 223 218 217
176 219 346 322 285 165 199 186 104 109 120 132 143 161 175 147 117 105 82 59 36 21 14 5 2 358 358 350 339 334 334 328 320 314 309 304 300 299 294 289 276 249 231 226 220 223 222 217 218
1 185 156 181 235 241 192 183 186 174 174 171 173 177 160 134 113 91 73 58 41 28 19 18 13 3 355 348 342 341 337 338 332 325 324 325 325 327 320 309 304 290 254 234 224 225 224 218 220
163 177 207 218 265 268 234 185 171 168 168 171 169 152 133 113 95 79 66 55 47 36 30 24 11 3 356 348 344 351 353 350 348 349 348 347 345 346 346 341 343 341 336 340 187 210 190 197 199
206 193 190 193 233 228 262 331 68 135 138 138 133 129 125 112 99 91 81 63 54 41 31 21 11 4 356 350 353 1 1 359 1 359 358 1 4 8 9 13 21 25 28 35 59 77 89 112 125
Height
1520 1521 1522 1523 1522 1521 1516 1504 1495 1499 1501 1503 1504 1505 1505 1507 1512 1522 1522 1522 1521 1522 1525 1528 1530 1532 1535 1537 1540 1542 1544 1545 1546 1547 1548 1548 1548 1548 1549 1549 1550 1551 1552 1553 1554 1554 1554 1554 1554
1520 1521 1523 1522 1521 1524 1513 1499 1498 1501 1505 1507 1508 1509 1509 1509 1513 1517 1519 1522 1521 1522 1525 1528 1531 1533 1535 1538 1540 1542 1544 1546 1547 1547 1548 1548 1548 1549 1549 1551 1552 1552 1554 1555 1556 1556 1556 1556 1557
1519 1521 1523 1518 1518 1518 1507 1495 1497 1501 1506 1509 1509 1509 1509 1512 1514 1517 1519 1521 1522 1523 1525 1528 1531 1533 1536 1538 1541 1543 1544 1546 1547 1548 1548 1548 1549 1549 1550 1551 1553 1554 1555 1557 1557 1558 1558 1558 1559
1520 1522 1521 1517 1514 1506 1500 1498 1498 1503 1507 1509 1508 1508 1511 1515 1516 1517 1519 1522 1523 1524 1525 1529 1531 1534 1536 1539 1541 1543 1545 1546 1547 1548 1548 1549 1549 1550 1551 1552 1554 1556 1557 1558 1559 1560 1560 1560 1561
1520 1521 1520 1517 1510 1501 1496 1498 1501 1504 1506 1508 1508 1507 1512 1516 1516 1518 1520 1524 1525 1525 1526 1530 1532 1534 1537 1539 1541 1543 1545 1546 1547 1548 1549 1550 1550 1551 1552 1553 1555 1557 1558 1559 1560 1561 1562 1562 1563
1521 1520 1520 1517 1509 1501 1497 1498 1502 1505 1506 1507 1508 1508 1514 1517 1518 1520 1523 1525 1527 1526 1527 1530 1532 1534 1537 1539 1541 1543 1545 1546 1548 1548 1549 1550 1551 1552 1553 1554 1556 1557 1559 1560 1561 1562 1563 1563 1564
1518 1519 1517 1512 1507 1501 1498 1498 1502 1506 1507 1508 1508 1508 1513 1517 1519 1522 1524 1527 1528 1527 1528 1530 1532 1535 1537 1539 1541 1543 1545 1546 1548 1549 1550 1551 1552 1553 1554 1555 1557 1558 1560 1561 1562 1563 1563 1564 1565
1513 1517 1515 1510 1506 1501 1496 1497 1501 1506 1507 1508 1509 1510 1513 1516 1519 1522 1524 1526 1528 1528 1528 1531 1533 1535 1537 1539 1541 1543 1545 1546 1547 1549 1550 1551 1552 1553 1555 1556 1557 1559 1560 1562 1563 1563 1564 1565 1566
1510 1517 1514 1509 1505 1500 1495 1497 1501 1505 1507 1509 1510 1513 1515 1516 1518 1521 1523 1525 1527 1529 1530 1531 1533 1535 1537 1539 1540 1542 1544 1545 1547 1548 1549 1551 1552 1554 1555 1556 1558 1559 1560 1562 1563 1564 1564 1565 1566
1505 1509 1506 1502 1499 1497 1497 1497 1501 1505 1508 1509 1511 1513 1515 1516 1518 1520 1522 1524 1526 1528 1531 1533 1534 1536 1537 1538 1540 1541 1543 1544 1546 1547 1549 1551 1552 1553 1554 1556 1557 1559 1560 1561 1562 1563 1564 1565 1565
1499 1500 1499 1498 1497 1497 1497 1498 1500 1503 1507 1508 1509 1512 1514 1516 1518 1519 1521 1523 1525 1527 1529 1532 1534 1536 1537 1538 1539 1540 1542 1543 1545 1546 1548 1550 1551 1553 1553 1555 1556 1558 1559 1560 1561 1562 1563 1563 1564
1494 1495 1497 1496 1497 1499 1499 1498 1500 1503 1506 1506 1507 1510 1512 1515 1517 1519 1521 1523 1524 1525 1527 1530 1532 1534 1536 1537 1538 1540 1541 1542 1544 1545 1546 1548 1550 1552 1552 1553 1554 1556 1557 1558 1559 1561 1561 1562 1562
1491 1492 1493 1495 1497 1499 1500 1500 1501 1503 1505 1506 1507 1509 1512 1515 1517 1519 1520 1523 1524 1524 1526 1528 1529 1531 1533 1535 1537 1539 1540 1541 1543 1544 1546 1547 1548 1550 1551 1551 1552 1553 1554 1556 1557 1559 1559 1560 1561
1489 1491 1491 1494 1497 1499 1500 1500 1502 1503 1504 1506 1508 1511 1513 1515 1516 1518 1519 1521 1523 1524 1525 1526 1527 1529 1531 1533 1535 1537 1539 1540 1541 1542 1544 1545 1547 1547 1549 1550 1551 1551 1552 1553 1554 1556 1557 1558 1558
1488 1491 1492 1494 1497 1499 1502 1504 1502 1502 1504 1506 1508 1510 1512 1514 1515 1517 1518 1520 1522 1523 1524 1525 1526 1527 1528 1530 1532 1534 1536 1538 1539 1540 1541 1543 1544 1545 1545 1547 1548 1549 1550 1551 1552 1553 1554 1555 1555
1488 1493 1497 1494 1496 1498 1505 1506 1500 1501 1503 1504 1506 1508 1510 1511 1513 1515 1516 1518 1519 1521 1522 1524 1524 1525 1526 1528 1529 1531 1532 1534 1536 1537 1538 1539 1540 1542 1542 1543 1544 1546 1547 1548 1548 1549 1550 1550 1551
1491 1496 1496 1493 1493 1496 1501 1502 1496 1496 1499 1502 1504 1505 1507 1508 1510 1512 1513 1515 1516 1518 1520 1521 1522 1523 1524 1526 1527 1528 1529 1530 1532 1533 1534 1535 1536 1537 1538 1539 1540 1542 1543 1543 1544 1545 1546 1546 1547
1488 1488 1490 1490 1488 1492 1497 1498 1495 1495 1497 1500 1501 1503 1504 1505 1507 1508 1509 1511 1512 1514 1516 1517 1519 1520 1521 1523 1524 1524 1525 1525 1526 1527 1529 1530 1531 1532 1533 1534 1535 1536 1537 1538 1539 1540 1541 1542 1543
1476 1482 1484 1484 1483 1490 1494 1496 1494 1493 1495 1498 1499 1500 1501 1502 1503 1504 1505 1507 1509 1510 1512 1513 1515 1516 1517 1518 1519 1520 1520 1520 1521 1522 1523 1524 1525 1526 1527 1528 1529 1530 1530 1531 1533 1534 1535 1536 1538
1473 1477 1480 1480 1484 1489 1493 1493 1491 1490 1492 1494 1496 1497 1498 1499 1500 1501 1503 1505 1506 1507 1508 1509 1510 1511 1512 1513 1514 1515 1515 1515 1516 1516 1516 1517 1518 1519 1520 1522 1523 1524 1524 1525 1526 1527 1528 1529 1531
1474 1475 1476 1481 1488 1490 1493 1494 1489 1486 1489 1491 1492 1494 1496 1497 1499 1500 1502 1503 1504 1504 1504 1505 1505 1506 1507 1508 1508 1509 1509 1510 1511 1511 1511 1511 1512 1512 1513 1514 1516 1517 1518 1519 1519 1520 1521 1521 1522
1476 1472 1473 1479 1492 1496 1496 1501 1482 1482 1487 1489 1491 1492 1494 1497 1498 1499 1501 1502 1502 1502 1502 1502 1502 1502 1502 1502 1503 1503 1503 1503 1504 1505 1506 1506 1506 1506 1506 1507 1508 1510 1511 1512 1512 1513 1514 1514 1514
1474 1473 1477 1482 1491 1492 1492 1497 1483 1479 1485 1487 1489 1491 1493 1496 1497 1499 1500 1500 1500 1500 1499 1499 1499 1499 1498 1498 1498 1498 1498 1498 1499 1499 1499 1500 1500 1500 1500 1500 1501 1502 1503 1504 1505 1506 1506 1506 1506
1475 1479 1484 1488 1492 1501 1490 1493 1484 1479 1478 1483 1486 1490 1492 1495 1497 1498 1499 1499 1499 1497 1497 1496 1495 1495 1494 1494 1493 1493 1493 1492 1492 1493 1493 1493 1493 1494 1494 1494 1494 1494 1495 1496 1497 1498 1499 1499 1499
1478 1488 1499 1503 1505 1499 1481 1483 1478 1467 1470 1477 1483 1488 1491 1494 1495 1496 1496 1496 1496 1495 1494 1493 1492 1491 1490 1490 1489 1488 1488 1487 1487 1486 1486 1486 1486 1487 1487 1488 1487 1487 1487 1488 1489 1490 1490 1491 1491
1479 1482 1491 1495 1497 1490 1482 1485 1475 1468 1470 1476 1482 1486 1490 1492 1493 1494 1494 1494 1493 1492 1491 1490 1489 1488 1486 1485 1485 1484 1483 1482 1481 1481 1480 1480 1480 1480 1480 1480 1480 1479 1480 1480 1481 1481 1482 1483 1484
1481 1483 1482 1487 1479 1482 1486 1476 1478 1472 1475 1478 1482 1485 1488 1490 1491 1492 1492 1491 1490 1489 1488 1487 1485 1484 1483 1482 1481 1479 1478 1477 1476 1476 1475 1474 1473 1473 1473 1472 1472 1472 1472 1473 1473 1473 1474 1475 1476
1482 1481 1487 1490 1488 1481 1473 1474 1478 1476 1476 1478 1480 1483 1485 1487 1488 1489 1489 1489 1488 1486 1485 1484 1482 1481 1480 1478 1477 1476 1474 1473 1472 1471 1470 1469 1468 1467 1466 1466 1465 1465 1465 1466 1466 1467 1467 1468 1469
1484 1485 1483 1483 1482 1486 1477 1474 1457 1465 1470 1475 1478 1481 1483 1485 1486 1487 1487 1486 1485 1484 1483 1481 1480 1479 1477 1476 1474 1472 1471 1470 1468 1467 1466 1464 1463 1462 1461 1460 1460 1460 1460 1460 1460 1461 1461 1462 1462
1477 1478 1480 1485 1485 1481 1485 1480 1459 1463 1468 1473 1476 1479 1481 1483 1484 1484 1484 1484 1483 1481 1480 1478 1477 1476 1474 1472 1471 1469 1468 1466 1465 1463 1462 1461 1459 1458 1457 1456 1455 1455 1455 1455 1455 1455 1455 1456 1457